Weather History for K8D3 - April, 2013

Change the Weather History Date:

Monday, April 8, 2013

  Actual Average Record
Temperature  
Mean Temperature 28 °F 41 °F  
Max Temperature 34 °F 52 °F 82 °F (1945)
Min Temperature 22 °F 29 °F 3 °F (1997)
Degree Days  
Heating Degree Days 37 24  
Month to date heating degree days 271 208  
Since 1 July heating degree days 8099 7550  
Cooling Degree Days 0 0  
Month to date cooling degree days 0 0  
Year to date cooling degree days 0 0  
Moisture  
Dew Point 30 °F    
Average Humidity 91    
Maximum Humidity 100    
Minimum Humidity 81    
Precipitation  
Precipitation 0.00 in 0.06 in 0.78 in (1969)
Month to date precipitation 0.07 0.35  
Year to date precipitation 3.42 2.33  
Snow  
Snow 0.00 in - - ()
Month to date snowfall 0.0  
Since 1 July snowfall 42.1  
Snow Depth 1.00 in    
Sea Level Pressure  
Sea Level Pressure 29.95 in    
Wind  
Wind Speed 18 mph (NNE)    
Max Wind Speed 32 mph    
Max Gust Speed 38 mph    
T = Trace of Precipitation, MM = Missing Value Source: NWS Daily Summary

Daily Weather History Graph

Daily Weather History Graph

Search for Another Location

Airport or City:

Trip Planner

Search our weather history database for the weather conditions in past years. The results will help you decide how hot, cold, wet, or windy it might be!

Date:

Astronomy

Apr. 08, 2013 Rise Set
Actual Time 6:54 AM CDT 8:05 PM CDT
Civil Twilight 6:23 AM CDT 8:36 PM CDT
Nautical Twilight 5:47 AM CDT 9:13 PM CDT
Astronomical Twilight 5:08 AM CDT 9:52 PM CDT
Moon 5:49 AM CDT (4/8) 6:38 PM CDT (4/8)
Length of Visible Light 14h 12m
Length of Day
13h 11m
Waning Crescent, 3% of the Moon is Illuminated
Apr 8
Waning Crescent
Apr 10
New
Apr 18
First Quarter
Apr 25
Full
May 2
Last Quarter

Hourly Weather History & Observations

Time (CDT) Temp. Windchill Dew Point Humidity Pressure Visibility Wind Dir Wind Speed Gust Speed Precip Events Conditions
12:56 AM 34.0 °F 28.8 °F 33.1 °F 96% 29.77 in - North 5.8 mph - N/A   Unknown
1:56 AM 34.0 °F 28.8 °F 33.1 °F 96% 29.77 in - NW 5.8 mph - N/A   Unknown
2:56 AM 34.0 °F 28.0 °F 34.0 °F 100% 29.77 in - North 6.9 mph - N/A   Unknown
3:56 AM 33.1 °F 25.5 °F 33.1 °F 100% 29.77 in - North 9.2 mph - N/A   Unknown
4:56 AM 33.1 °F 26.9 °F 33.1 °F 100% 29.78 in - North 6.9 mph - N/A   Unknown
5:56 AM 33.1 °F 25.5 °F 33.1 °F 100% 29.78 in - North 9.2 mph - N/A   Unknown
6:56 AM 33.1 °F 24.9 °F 33.1 °F 100% 29.79 in - North 10.4 mph - N/A   Unknown
7:56 AM 33.1 °F 23.0 °F 33.1 °F 100% 29.81 in - NNE 15.0 mph - N/A   Unknown
8:56 AM 33.1 °F 23.9 °F 33.1 °F 100% 29.84 in - NNE 12.7 mph - N/A   Unknown
9:56 AM 33.1 °F 23.0 °F 33.1 °F 100% 29.86 in - NNE 15.0 mph - N/A   Unknown
10:56 AM 34.0 °F 24.6 °F 33.1 °F 96% 29.88 in - NNE 13.8 mph - N/A   Unknown
11:56 AM 34.0 °F 23.8 °F 33.1 °F 96% 29.91 in - NNE 16.1 mph - N/A   Unknown
12:56 PM 34.0 °F 23.4 °F 33.1 °F 96% 29.93 in - NNE 17.3 mph - N/A   Unknown
1:56 PM 34.0 °F 22.4 °F 33.1 °F 96% 29.94 in - NNE 20.7 mph - N/A   Unknown
2:56 PM 32.0 °F 19.2 °F 30.9 °F 96% 29.97 in - North 23.0 mph 28.8 mph N/A   Unknown
3:56 PM 30.0 °F 17.2 °F 28.0 °F 92% 30.03 in - North 20.7 mph - N/A   Unknown
4:56 PM 30.0 °F 15.7 °F 27.0 °F 88% 30.04 in - NNE 26.5 mph 33.4 mph N/A   Unknown
5:56 PM 28.9 °F 15.4 °F 27.0 °F 92% 30.08 in - North 21.9 mph - N/A   Unknown
6:56 PM 28.0 °F 14.3 °F 25.0 °F 88% 30.12 in - North 21.9 mph 28.8 mph N/A   Unknown
7:56 PM 27.0 °F 11.6 °F 24.1 °F 89% 30.13 in - NNE 26.5 mph - N/A   Unknown
8:56 PM 27.0 °F 12.5 °F 23.0 °F 85% 30.17 in - NNE 23.0 mph - N/A   Unknown
9:56 PM 26.1 °F 11.3 °F 21.9 °F 84% 30.21 in - NNE 23.0 mph 28.8 mph N/A   Unknown
10:56 PM 24.1 °F 8.0 °F 19.9 °F 84% 30.25 in - NNE 25.3 mph 33.4 mph N/A   Unknown
11:56 PM 23.0 °F 6.3 °F 18.0 °F 81% 30.25 in - NNE 26.5 mph 32.2 mph N/A   Unknown